Murray, KY

7:59 AM CST on December 09, 2019 (GMT -0600)
Kyle-Oakley

Weather History for KCEY - October, 2019

Change the Weather History Date:

Monday, October 28, 2019

  Actual Average (WUND) Record (WUND)
Temperature  
Mean Temperature 56 °F -  
Max Temperature 59 °F - - (-1)
Min Temperature 53 °F - - (-1)
Degree Days  
Heating Degree Days 9    
Growing Degree Days 6 (Base 50)    
Moisture  
Dew Point 55 °F    
Average Humidity 97    
Maximum Humidity 100    
Minimum Humidity 82    
Precipitation  
Precipitation 0.00 in - - ()
Sea Level Pressure  
Sea Level Pressure 30.08 in    
Wind  
Wind Speed 4 mph (South)    
Max Wind Speed 8 mph    
Max Gust Speed -    
Visibility 9 miles    
Events      
Averages and records for this station are not official NWS values.
T = Trace of Precipitation, MM = Missing Value Source: NWS Daily Summary

Daily Weather History Graph

Daily Weather History Graph

Search for Another Location

Airport or City:

Astronomy

Oct. 28, 2019 Rise Set
Actual Time 7:12 AM CDT 6:01 PM CDT
Civil Twilight 6:46 AM CDT 6:27 PM CDT
Nautical Twilight 6:15 AM CDT 6:58 PM CDT
Astronomical Twilight 5:45 AM CDT 7:28 PM CDT
Moon 7:34 AM CDT (10/28) 6:46 PM CDT (10/28)
Length of Visible Light 11h 41m
Length of Day
10h 48m
New Moon, 0% of the Moon is Illuminated
Oct 28
New Moon
Nov 4
First Quarter
Nov 12
Full
Nov 19
Last Quarter
Nov 26
New

Hourly Weather History & Observations

Time (CDT) Temp. Dew Point Humidity Pressure Visibility Wind Dir Wind Speed Gust Speed Precip Events Conditions
12:15 AM 55.4 °F 55.4 °F 100% 30.07 in 10.0 mi SSW 3.5 mph - N/A   Overcast
1:15 AM 55.4 °F 55.4 °F 100% 30.07 in 10.0 mi South 5.8 mph - N/A   Unknown
1:55 AM 53.6 °F 53.6 °F 100% 30.06 in 10.0 mi South 3.5 mph - N/A   Unknown
2:15 AM 53.6 °F 53.6 °F 100% 30.07 in 10.0 mi South 8.1 mph - N/A   Unknown
2:35 AM 53.6 °F 53.6 °F 100% 30.06 in 10.0 mi SSW 4.6 mph - N/A   Unknown
2:55 AM 53.6 °F 53.6 °F 100% 30.06 in 10.0 mi SSW 4.6 mph - N/A   Overcast
3:15 AM 53.6 °F 53.6 °F 100% 30.05 in 10.0 mi SSE 4.6 mph - N/A   Overcast
3:35 AM 53.6 °F 53.6 °F 100% 30.05 in 10.0 mi South 5.8 mph - N/A   Overcast
3:55 AM 53.6 °F 53.6 °F 100% 30.06 in 10.0 mi SSW 4.6 mph - N/A   Overcast
4:15 AM 53.6 °F 53.6 °F 100% 30.07 in 10.0 mi South 5.8 mph - N/A   Overcast
4:35 AM 53.6 °F 53.6 °F 100% 30.07 in 10.0 mi SW 4.6 mph - N/A   Overcast
4:55 AM 53.6 °F 53.6 °F 100% 30.08 in 10.0 mi SW 6.9 mph - N/A   Overcast
5:15 AM 53.6 °F 53.6 °F 100% 30.08 in 8.0 mi SW 6.9 mph - N/A   Overcast
5:35 AM 53.6 °F 53.6 °F 100% 30.09 in 5.0 mi SW 5.8 mph - N/A   Overcast
5:55 AM 53.6 °F 53.6 °F 100% 30.10 in 5.0 mi SW 6.9 mph - N/A   Overcast
6:15 AM 53.6 °F 53.6 °F 100% 30.10 in 3.0 mi SW 3.5 mph - N/A   Overcast
6:35 AM 53.6 °F 53.6 °F 100% 30.10 in 4.0 mi Calm Calm - N/A   Overcast
6:55 AM 53.6 °F 53.6 °F 100% 30.11 in 2.5 mi Calm Calm - N/A   Overcast
7:15 AM 53.6 °F 53.6 °F 100% 30.10 in 1.5 mi Calm Calm - N/A   Overcast
7:35 AM 53.6 °F 53.6 °F 100% 30.11 in 0.8 mi Calm Calm - N/A   Overcast
7:55 AM 53.6 °F 53.6 °F 100% 30.12 in 2.5 mi Calm Calm - N/A   Overcast
8:15 AM 53.6 °F 53.6 °F 100% 30.12 in 2.0 mi Calm Calm - N/A   Overcast
8:35 AM 53.6 °F 53.6 °F 100% 30.12 in 10.0 mi SSW 3.5 mph - N/A   Overcast
8:55 AM 53.6 °F 53.6 °F 100% 30.12 in 5.0 mi WSW 4.6 mph - N/A   Overcast
9:15 AM 53.6 °F 53.6 °F 100% 30.12 in 2.5 mi South 3.5 mph - N/A   Overcast
9:35 AM 53.6 °F 53.6 °F 100% 30.12 in 7.0 mi SSW 3.5 mph - N/A   Overcast
9:55 AM 55.4 °F 55.4 °F 100% 30.11 in 10.0 mi SSW 4.6 mph - N/A   Overcast
10:15 AM 55.4 °F 55.4 °F 100% 30.11 in 10.0 mi SSE 4.6 mph - N/A   Overcast
10:35 AM 57.2 °F 57.2 °F 100% 30.11 in 10.0 mi South 6.9 mph - N/A   Overcast
10:55 AM 57.2 °F 57.2 °F 100% 30.11 in 10.0 mi SW 6.9 mph - N/A   Overcast
12:55 PM 59.0 °F 55.4 °F 88% 30.07 in 10.0 mi Calm Calm - N/A   Overcast
1:15 PM 59.0 °F 55.4 °F 88% 30.07 in 10.0 mi South 4.6 mph - N/A   Overcast
1:35 PM 59.0 °F 55.4 °F 88% 30.06 in 10.0 mi SSE 5.8 mph - N/A   Overcast
1:55 PM 59.0 °F 55.4 °F 88% 30.06 in 10.0 mi South 5.8 mph - N/A   Overcast
2:35 PM 59.0 °F 55.4 °F 88% 30.05 in 10.0 mi SSW 4.6 mph - N/A   Overcast
2:55 PM 59.0 °F 55.4 °F 88% 30.06 in 10.0 mi SSW 4.6 mph - N/A   Overcast
3:15 PM 59.0 °F 57.2 °F 94% 30.05 in 10.0 mi SSW 6.9 mph - N/A   Overcast
3:35 PM 59.0 °F 55.4 °F 88% 30.05 in 10.0 mi SSW 4.6 mph - N/A   Overcast
3:55 PM 59.0 °F 55.4 °F 88% 30.05 in 10.0 mi South 4.6 mph - N/A   Overcast
4:35 PM 59.0 °F 53.6 °F 82% 30.04 in 10.0 mi Calm Calm - N/A   Overcast
4:55 PM 59.0 °F 55.4 °F 88% 30.05 in 10.0 mi SSE 3.5 mph - N/A   Overcast
5:15 PM 59.0 °F 57.2 °F 94% 30.06 in 10.0 mi South 4.6 mph - N/A   Overcast
5:35 PM 57.2 °F 57.2 °F 100% 30.05 in 10.0 mi Calm Calm - N/A   Overcast
5:55 PM 57.2 °F 55.4 °F 94% 30.06 in 10.0 mi South 5.8 mph - N/A   Overcast
6:15 PM 57.2 °F 55.4 °F 94% 30.06 in 10.0 mi SE 4.6 mph - N/A   Overcast
6:35 PM 57.2 °F 55.4 °F 94% 30.06 in 10.0 mi Calm Calm - N/A   Overcast
6:55 PM 57.2 °F 55.4 °F 94% 30.07 in 10.0 mi SSE 5.8 mph - N/A   Overcast
7:15 PM 57.2 °F 55.4 °F 94% 30.07 in 10.0 mi SSW 5.8 mph - N/A   Overcast
7:35 PM 57.2 °F 55.4 °F 94% 30.07 in 10.0 mi SSE 4.6 mph - N/A   Overcast
7:55 PM 57.2 °F 55.4 °F 94% 30.06 in 10.0 mi SSE 5.8 mph - N/A   Overcast
8:15 PM 55.4 °F 55.4 °F 100% 30.06 in 10.0 mi SSE 4.6 mph - N/A   Overcast
8:35 PM 55.4 °F 55.4 °F 100% 30.07 in 10.0 mi SSE 5.8 mph - N/A   Unknown
8:55 PM 55.4 °F 55.4 °F 100% 30.06 in 10.0 mi SSE 6.9 mph - N/A   Overcast
9:15 PM 55.4 °F 55.4 °F 100% 30.08 in 10.0 mi South 5.8 mph - N/A   Overcast
9:35 PM 55.4 °F 55.4 °F 100% 30.08 in 10.0 mi South 5.8 mph - N/A   Overcast
9:55 PM 55.4 °F 55.4 °F 100% 30.09 in 10.0 mi South 4.6 mph - N/A   Overcast
10:15 PM 55.4 °F 55.4 °F 100% 30.08 in 10.0 mi South 4.6 mph - N/A   Overcast
10:35 PM 55.4 °F 55.4 °F 100% 30.08 in 10.0 mi South 3.5 mph - N/A   Overcast
10:55 PM 55.4 °F 55.4 °F 100% 30.08 in 10.0 mi South 3.5 mph - N/A   Overcast
11:15 PM 55.4 °F 55.4 °F 100% 30.08 in 10.0 mi SSW 4.6 mph - N/A   Overcast
11:55 PM 55.4 °F 55.4 °F 100% 30.09 in 10.0 mi SW 6.9 mph - N/A   Overcast